TimeEDT,TemperatureF,Dew PointF,Humidity,Sea Level PressureIn,VisibilityMPH,Wind Direction,Wind SpeedMPH,Gust SpeedMPH,PrecipitationIn,Events,Conditions,WindDirDegrees,DateUTC
12:56 AM,51.1,37.0,59,29.94,10.0,West,6.9,-,N/A,,Clear,270,2012-10-11 04:56:00
1:56 AM,50.0,37.4,62,29.97,10.0,West,9.2,-,N/A,,Clear,280,2012-10-11 05:56:00
2:56 AM,48.9,37.0,64,29.98,10.0,West,9.2,-,N/A,,Clear,280,2012-10-11 06:56:00
3:56 AM,48.0,35.1,61,30.01,10.0,West,15.0,19.6,N/A,,Clear,280,2012-10-11 07:56:00
4:56 AM,46.9,35.1,63,30.04,10.0,West,10.4,19.6,N/A,,Clear,280,2012-10-11 08:56:00
5:56 AM,46.0,34.0,63,30.09,10.0,West,12.7,23.0,N/A,,Clear,280,2012-10-11 09:56:00
6:56 AM,45.0,33.1,63,30.11,10.0,WNW,12.7,21.9,N/A,,Clear,290,2012-10-11 10:56:00
7:56 AM,46.4,33.8,62,30.12,10.0,NW,20.7,26.5,N/A,,Clear,310,2012-10-11 11:56:00
8:56 AM,46.9,34.0,61,30.16,10.0,WNW,16.1,24.2,N/A,,Clear,300,2012-10-11 12:56:00
9:56 AM,48.9,33.1,54,30.18,10.0,NW,17.3,25.3,N/A,,Clear,320,2012-10-11 13:56:00
10:56 AM,51.1,34.0,52,30.19,10.0,WNW,18.4,23.0,N/A,,Clear,290,2012-10-11 14:56:00
11:56 AM,53.1,34.0,48,30.19,10.0,NW,15.0,20.7,N/A,,Clear,310,2012-10-11 15:56:00
12:56 PM,54.0,33.1,45,30.17,10.0,WNW,12.7,18.4,N/A,,Clear,300,2012-10-11 16:56:00
1:56 PM,55.0,33.1,43,30.15,10.0,WNW,9.2,-,N/A,,Clear,300,2012-10-11 17:56:00
2:56 PM,57.0,33.1,40,30.15,10.0,NW,10.4,-,N/A,,Clear,320,2012-10-11 18:56:00
3:56 PM,57.0,32.0,39,30.15,10.0,Variable,4.6,-,N/A,,Clear,0,2012-10-11 19:56:00
4:56 PM,57.2,30.2,36,30.13,10.0,West,5.8,-,N/A,,Clear,270,2012-10-11 20:56:00
5:56 PM,53.1,35.1,50,30.14,10.0,Calm,Calm,-,N/A,,Clear,0,2012-10-11 21:56:00
6:56 PM,48.2,39.2,71,30.13,10.0,Calm,Calm,-,N/A,,Clear,0,2012-10-11 22:56:00
7:56 PM,51.1,35.1,54,30.14,10.0,Calm,Calm,-,N/A,,Clear,0,2012-10-11 23:56:00
8:56 PM,51.8,33.8,50,30.15,10.0,Variable,4.6,-,N/A,,Clear,0,2012-10-12 00:56:00
9:56 PM,50.0,33.1,52,30.16,10.0,West,3.5,-,N/A,,Clear,260,2012-10-12 01:56:00
10:56 PM,51.1,33.1,50,30.16,10.0,Calm,Calm,-,N/A,,Clear,0,2012-10-12 02:56:00
11:56 PM,45.0,37.0,74,30.14,10.0,Calm,Calm,-,N/A,,Clear,0,2012-10-12 03:56:00